Regional Weather Roundup
Issued by NWS Little Rock, AR

Home | Current Version | Previous Version | Text Only | Print | Product List | Glossary On
Versions: 1 2 3 4 5 6 7 8 9 10 11 12 13 14 15 16 17 18 19 20 21 22 23 24 25 26 27
000
ASUS44 KLZK 260005
RWRLZK

WEATHER ROUNDUP FOR ARKANSAS
NATIONAL WEATHER SERVICE LITTLE ROCK AR
700 PM CDT SAT OCT 25 2014

NOTE: "FAIR" INDICATES FEW OR NO CLOUDS BELOW 12,000 FEET WITH NO
SIGNIFICANT WEATHER AND/OR OBSTRUCTIONS TO VISIBILITY.

ARZ001-003-010-029-260100-
NORTHWEST ARKANSAS

CITY           SKY/WX    TMP DP  RH WIND       PRES   REMARKS
FAYETTEVILLE   CLEAR     68  64  87 CALM      30.05S
6HR MIN TEMP:  68; 6HR MAX TEMP:  82;

FORT SMITH     CLEAR     76  64  66 CALM      30.02S
6HR MIN TEMP:  75; 6HR MAX TEMP:  87;

HARRISON       CLEAR     73  63  70 CALM      30.06R
6HR MIN TEMP:  72; 6HR MAX TEMP:  85;

BENTONVILLE    CLEAR     73  61  64 CALM      30.06S
6HR MIN TEMP:  73; 6HR MAX TEMP:  82;

ROGERS         CLEAR     72  62  71 CALM      30.06S
6HR MIN TEMP:  72; 6HR MAX TEMP:  83;

SILOAM SPGS    CLEAR     73  61  64 SW3       30.06S
6HR MIN TEMP:  73; 6HR MAX TEMP:  82;

HIGHFILL       CLEAR     72  63  73 CALM      30.05S
6HR MIN TEMP:  72; 6HR MAX TEMP:  83;

SPRINGDALE     CLEAR     73  63  68 CALM      30.07S
$$

ARZ004-005-016-260100-
NORTH CENTRAL ARKANSAS

CITY           SKY/WX    TMP DP  RH WIND       PRES   REMARKS
BATESVILLE     CLEAR     75  64  69 CALM      30.01S
6HR MIN TEMP:  75; 6HR MAX TEMP:  88;

FLIPPIN        CLEAR     73  61  64 CALM      30.03S
6HR MIN TEMP:  73; 6HR MAX TEMP:  86;

MTN HOME       CLEAR     72  62  71 CALM      30.02S
6HR MIN TEMP:  72; 6HR MAX TEMP:  84;

$$

ARZ040-041-260100-
WEST CENTRAL ARKANSAS

CITY           SKY/WX    TMP DP  RH WIND       PRES   REMARKS
MENA           CLEAR     72  64  78 CALM      30.07S
MOUNT IDA      CLEAR     73  66  78 CALM      30.04R
6HR MIN TEMP:  73; 6HR MAX TEMP:  86;

$$

ARZ009-017-025-026-028-260100-
NORTHEAST ARKANSAS

CITY           SKY/WX    TMP DP  RH WIND       PRES   REMARKS
CORNING        FAIR      70  66  88 SE6       30.01R
JONESBORO      CLEAR     72  64  76 CALM      30.00S
6HR MIN TEMP:  71; 6HR MAX TEMP:  84;

NEWPORT        CLEAR     74  64  70 S8        30.02R
6HR MIN TEMP:  74; 6HR MAX TEMP:  88;

WALNUT RIDGE   CLEAR     73  63  68 S3        30.00R
6HR MIN TEMP:  73; 6HR MAX TEMP:  84;

BLYTHEVILLE    CLEAR     74  64  71 CALM      30.02R
6HR MIN TEMP:  74; 6HR MAX TEMP:  84;

$$

ARZ022-023-033-042-044-260100-
CENTRAL ARKANSAS

CITY           SKY/WX    TMP DP  RH WIND       PRES   REMARKS
LITTLE ROCK    CLEAR     76  64  66 SW7       30.02S
6HR MIN TEMP:  76; 6HR MAX TEMP:  87;

N LITTLE ROCK  CLEAR     75  67  76 SW5       30.02S
6HR MIN TEMP:  75; 6HR MAX TEMP:  84;

JACKSONVILLE   CLEAR     71  65  81 CALM      30.02S
6HR MIN TEMP:  71; 6HR MAX TEMP:  86;

SEARCY         CLEAR     70  65  84 CALM      30.03R
6HR MIN TEMP:  70; 6HR MAX TEMP:  85;

HOT SPRINGS    CLEAR     74  64  71 W3        30.05S
6HR MIN TEMP:  74; 6HR MAX TEMP:  84;

RUSSELLVILLE   CLEAR     70  66  87 CALM      30.02S
6HR MIN TEMP:  70; 6HR MAX TEMP:  85;

$$

ARZ036-260100-
EAST ARKANSAS

CITY           SKY/WX    TMP DP  RH WIND       PRES   REMARKS
WEST MEMPHIS   CLEAR     73  65  75 SW3       30.01R
6HR MIN TEMP:  73; 6HR MAX TEMP:  84;

$$

ARZ050-053-066-070-073-260100-
SOUTHWEST ARKANSAS

CITY           SKY/WX    TMP DP  RH WIND       PRES   REMARKS
ARKADELPHIA    FAIR      70  70 100 CALM      30.05S
6HR MIN TEMP:  70; 6HR MAX TEMP:  83;

CAMDEN         CLEAR     72  66  83 MISG      30.05R
TEXARKANA      CLEAR     75  64  68 SW5       30.05S
6HR MIN TEMP:  75; 6HR MAX TEMP:  84;

EL DORADO      CLEAR     69  65  86 CALM      30.06S
6HR MIN TEMP:  68; 6HR MAX TEMP:  83;

DE QUEEN       CLEAR     71  68  90 CALM      30.03R
6HR MIN TEMP:  71; 6HR MAX TEMP:  83;

$$

ARZ056-057-069-260100-
SOUTHEAST ARKANSAS

CITY           SKY/WX    TMP DP  RH WIND       PRES   REMARKS
PINE BLUFF     CLEAR     74  65  73 SW6       30.04S
6HR MIN TEMP:  74; 6HR MAX TEMP:  83;

STUTTGART      CLEAR     72  63  73 SW8       30.04R
6HR MIN TEMP:  72; 6HR MAX TEMP:  86;

MONTICELLO     CLEAR     71  66  84 SW3       30.05S
6HR MIN TEMP:  71; 6HR MAX TEMP:  82;


$$





USA.gov is the U.S. government's official web portal to all federal, state and local government web resources and services.